Regional Weather Roundup
Issued by NWS

Home | Current Version | Previous Version | Graphics & Text | Print | Product List | Glossary Off
Versions: 1 2 3 4 5 6 7 8 9 10 11 12 13 14 15 16 17 18 19 20 21 22 23 24 25 26 27 28 29 30 31 32 33 34 35 36 37 38 39 40 41 42 43 44 45 46 47 48 49 50

000
ASUS43 KLSX 160159
RWRMO

WEATHER SUMMARY FOR MISSOURI
NATIONAL WEATHER SERVICE SPRINGFIELD MO
900 PM CDT MON SEP 15 2014

NOTE: "FAIR" INDICATES FEW OR NO CLOUDS BELOW 12,000 FEET WITH NO
       SIGNIFICANT WEATHER AND/OR OBSTRUCTIONS TO VISIBILITY.
       CURRENT SKY AND/OR WEATHER CONDITIONS ARE NOT AVAILABLE FOR
       CHILLICOTHE AND FARMINGTON.

MOZ001>031-035>038-043-044-053-054-160300-
...NORTHERN AND WESTERN MISSOURI...

CITY           SKY/WX    TMP DP  RH WIND       PRES   REMARKS
KANSAS CTY INT CLEAR     54  50  86 N8        30.22R
KANSAS C DTWN  CLEAR     59  50  72 NE6       30.22R
LEE`S SUMMIT   MOCLDY    60  51  72 NE15      30.22R
ST JOSEPH      CLOUDY    55  51  86 N5        30.23R
KIRKSVILLE     MOCLDY    54  50  86 N7        30.22R

$$
MOZ066>068-077>081-088>096-101>105-160300-
...SOUTHWEST MISSOURI...

CITY           SKY/WX    TMP DP  RH WIND       PRES   REMARKS
SPRINGFIELD    CLOUDY    71  65  81 N10       30.14R
JOPLIN         CLOUDY    69  67  93 N6        30.16R

$$
MOZ032>034-039>042-045>050-055>058-069>072-160300-
...CENTRAL MISSOURI...

CITY           SKY/WX    TMP DP  RH WIND       PRES   REMARKS
COLUMBIA       CLOUDY    64  61  90 N5        30.16R
JEFFERSON CITY CLOUDY    66  59  78 N3        30.16R
ROLLA          CLOUDY    64  59  83 N13G21    30.15R
SEDALIA        CLOUDY    62  56  80 N10       30.19R
WHITEMAN AFB   CLOUDY    61  56  83 N15       30.19R
OSAGE BEACH    CLOUDY    66  57  72 N7        30.16R

$$
MOZ051-052-059>065-160300-
...EAST CENTRAL MISSOURI...

CITY           SKY/WX    TMP DP  RH WIND       PRES   REMARKS
ST LOUIS INTL  CLOUDY    63  59  87 N10       30.14R
SPIRIT OF STL  CLOUDY    63  60  90 N7        30.13R
ST CHARLES     CLOUDY    62  59  90 N7        30.14R

$$
MOZ072>076-082>087-097>100-106>115-160300-
...SOUTH CENTRAL AND SOUTHEAST MISSOURI...

CITY           SKY/WX    TMP DP  RH WIND       PRES   REMARKS
CAPE GIRARDEAU CLOUDY    70  66  87 CALM      30.09R
FARMINGTON     CLOUDY    70  64  83 N8        30.13R
POPLAR BLUFF   CLEAR     67  63  87 S6        30.08R
WEST PLAINS    CLOUDY    73  67  81 VRB3      30.14R

$$


USA.gov is the U.S. government's official web portal to all federal, state and local government web resources and services.